When you browse on this site, cookies collect data to enhance your experience and personalize the content and advertising you see.
Visit our Privacy Policy to learn more. By continuing to use the site, you agree to this use of cookies and data.
  • In United Kingdom
  • List of Countries
  • For 7 days
  • Water Temperature
  • Satellite Maps
  • Weather Map
  • Weather Widgets
  • user-avatar
    Login

    Hourly Weather Balho

    Today, 20 May, Monday

    Time Temperature Precipitation Wind Pressure Humidity
    00:00 +36°C° 0.1 mm 4 mps 734 mmHg 48%
    01:00 +34°C° 1.9 mm 4 mps 734 mmHg 53%
    02:00 +33°C° 1.9 mm 3 mps 734 mmHg 58%
    03:00 +30°C° 1.9 mm 3 mps 734 mmHg 64%
    04:00 +30°C° 0.2 mm 2 mps 734 mmHg 62%
    05:00 +30°C° 0.2 mm 2 mps 735 mmHg 61%
    06:00 +31°C° 0.2 mm 1 mps 735 mmHg 60%
    07:00 +31°C° 0 mm 1 mps 735 mmHg 57%
    08:00 +32°C° 0 mm 1 mps 736 mmHg 55%
    09:00 +32°C° 0 mm 1 mps 736 mmHg 53%
    10:00 +33°C° 0 mm 1 mps 736 mmHg 48%
    11:00 +36°C° 0 mm 2 mps 736 mmHg 43%
    12:00 +37°C° 0 mm 2 mps 736 mmHg 39%
    13:00 +38°C° 0 mm 2 mps 735 mmHg 37%
    14:00 +37°C° 0 mm 1 mps 735 mmHg 35%
    15:00 +39°C° 0 mm 1 mps 734 mmHg 33%
    16:00 +39°C° 0 mm 1 mps 734 mmHg 32%
    17:00 +39°C° 0 mm 2 mps 734 mmHg 31%
    18:00 +39°C° 0 mm 2 mps 734 mmHg 31%
    19:00 +39°C° 0.2 mm 2 mps 734 mmHg 32%
    20:00 +38°C° 0.2 mm 2 mps 734 mmHg 33%
    21:00 +38°C° 0.2 mm 3 mps 735 mmHg 34%
    22:00 +37°C° 0 mm 3 mps 735 mmHg 36%
    23:00 +37°C° 0 mm 3 mps 735 mmHg 38%

    Tomorrow, 21 May, Tuesday

    Time Temperature Precipitation Wind Pressure Humidity
    00:00 +36°C° 0 mm 3 mps 735 mmHg 39%
    01:00 +36°C° 0 mm 3 mps 734 mmHg 41%
    02:00 +35°C° 0 mm 3 mps 734 mmHg 42%
    03:00 +35°C° 0 mm 2 mps 734 mmHg 43%
    04:00 +35°C° 0 mm 2 mps 734 mmHg 44%
    05:00 +34°C° 0 mm 2 mps 734 mmHg 46%
    06:00 +34°C° 0 mm 2 mps 734 mmHg 47%
    07:00 +35°C° 0 mm 2 mps 735 mmHg 43%
    08:00 +36°C° 0 mm 2 mps 735 mmHg 40%
    09:00 +36°C° 0 mm 2 mps 736 mmHg 37%
    10:00 +37°C° 0 mm 2 mps 736 mmHg 35%
    11:00 +38°C° 0 mm 2 mps 736 mmHg 32%
    12:00 +39°C° 0 mm 2 mps 736 mmHg 30%
    13:00 +40°C° 0 mm 2 mps 735 mmHg 29%
    14:00 +40°C° 0 mm 2 mps 734 mmHg 27%
    15:00 +41°C° 0 mm 2 mps 734 mmHg 26%
    16:00 +41°C° 0 mm 2 mps 734 mmHg 27%
    17:00 +40°C° 0 mm 3 mps 733 mmHg 29%
    18:00 +41°C° 0 mm 4 mps 733 mmHg 30%
    19:00 +40°C° 0 mm 4 mps 734 mmHg 34%
    20:00 +39°C° 0 mm 5 mps 734 mmHg 39%
    21:00 +39°C° 0 mm 5 mps 735 mmHg 43%
    22:00 +37°C° 0 mm 5 mps 735 mmHg 44%
    23:00 +36°C° 0 mm 5 mps 735 mmHg 46%

    Day after tomorrow, 22 May, Wednesday

    Time Temperature Precipitation Wind Pressure Humidity
    00:00 +36°C° 0 mm 5 mps 735 mmHg 47%
    01:00 +35°C° 0 mm 4 mps 735 mmHg 49%
    02:00 +35°C° 0 mm 4 mps 734 mmHg 50%
    03:00 +34°C° 0 mm 3 mps 734 mmHg 51%
    04:00 +34°C° 0 mm 3 mps 734 mmHg 53%
    05:00 +34°C° 0 mm 3 mps 734 mmHg 54%
    06:00 +34°C° 0 mm 3 mps 735 mmHg 55%
    07:00 +35°C° 0 mm 3 mps 735 mmHg 51%
    08:00 +36°C° 0 mm 3 mps 736 mmHg 47%
    09:00 +36°C° 0 mm 3 mps 737 mmHg 43%
    10:00 +37°C° 0 mm 3 mps 737 mmHg 40%
    11:00 +38°C° 0 mm 3 mps 736 mmHg 36%
    12:00 +39°C° 0 mm 2 mps 736 mmHg 33%
    13:00 +40°C° 0 mm 2 mps 735 mmHg 32%
    14:00 +40°C° 0 mm 2 mps 735 mmHg 31%
    15:00 +40°C° 0 mm 3 mps 734 mmHg 30%
    16:00 +40°C° 0.2 mm 3 mps 734 mmHg 31%
    17:00 +41°C° 0.2 mm 4 mps 734 mmHg 32%
    18:00 +41°C° 0.2 mm 4 mps 734 mmHg 33%
    19:00 +40°C° 0 mm 4 mps 734 mmHg 36%
    20:00 +39°C° 0 mm 5 mps 735 mmHg 39%
    21:00 +37°C° 0 mm 5 mps 735 mmHg 42%
    22:00 +37°C° 0 mm 5 mps 735 mmHg 44%
    23:00 +36°C° 0 mm 5 mps 735 mmHg 46%

    23 May, Thursday

    Time Temperature Precipitation Wind Pressure Humidity
    00:00 +36°C° 0 mm 4 mps 735 mmHg 48%
    01:00 +35°C° 0 mm 4 mps 735 mmHg 50%
    02:00 +35°C° 0 mm 3 mps 734 mmHg 51%
    03:00 +34°C° 0 mm 3 mps 734 mmHg 53%
    04:00 +34°C° 0 mm 2 mps 735 mmHg 52%
    05:00 +34°C° 0 mm 2 mps 735 mmHg 52%
    06:00 +34°C° 0 mm 2 mps 736 mmHg 52%
    07:00 +34°C° 0 mm 2 mps 736 mmHg 51%
    08:00 +34°C° 0 mm 2 mps 737 mmHg 50%
    09:00 +35°C° 0 mm 2 mps 738 mmHg 50%
    10:00 +35°C° 0 mm 2 mps 737 mmHg 47%
    11:00 +36°C° 0 mm 2 mps 737 mmHg 44%
    12:00 +37°C° 0 mm 2 mps 737 mmHg 41%
    13:00 +37°C° 0 mm 2 mps 736 mmHg 39%
    14:00 +37°C° 0 mm 2 mps 735 mmHg 38%
    15:00 +37°C° 0 mm 1 mps 735 mmHg 36%
    16:00 +37°C° 0 mm 1 mps 735 mmHg 35%
    17:00 +37°C° 0 mm 1 mps 735 mmHg 35%
    18:00 +37°C° 0 mm 1 mps 735 mmHg 34%
    19:00 +37°C° 0 mm 1 mps 735 mmHg 34%
    20:00 +37°C° 0 mm 2 mps 735 mmHg 35%
    21:00 +37°C° 0 mm 2 mps 736 mmHg 35%
    22:00 +37°C° 0 mm 2 mps 736 mmHg 36%
    23:00 +36°C° 0 mm 2 mps 735 mmHg 37%

    24 May, Friday

    Time Temperature Precipitation Wind Pressure Humidity
    00:00 +36°C° 0 mm 3 mps 735 mmHg 38%
    01:00 +36°C° 0 mm 2 mps 735 mmHg 39%
    02:00 +35°C° 0 mm 2 mps 735 mmHg 39%
    03:00 +35°C° 0 mm 2 mps 734 mmHg 40%
    04:00 +34°C° 0 mm 2 mps 735 mmHg 41%
    05:00 +34°C° 0 mm 2 mps 735 mmHg 43%
    06:00 +34°C° 0 mm 2 mps 736 mmHg 44%
    07:00 +35°C° 0 mm 2 mps 736 mmHg 42%
    08:00 +36°C° 0 mm 3 mps 737 mmHg 40%
    09:00 +37°C° 0 mm 3 mps 737 mmHg 37%
    10:00 +38°C° 0 mm 4 mps 737 mmHg 34%
    11:00 +40°C° 0 mm 4 mps 737 mmHg 31%
    12:00 +41°C° 0 mm 5 mps 736 mmHg 27%
    13:00 +42°C° 0 mm 5 mps 735 mmHg 26%
    14:00 +42°C° 0 mm 4 mps 735 mmHg 24%
    15:00 +42°C° 0 mm 4 mps 734 mmHg 23%
    16:00 +42°C° 0 mm 4 mps 734 mmHg 22%
    17:00 +42°C° 0 mm 4 mps 734 mmHg 21%
    18:00 +42°C° 0 mm 4 mps 734 mmHg 21%
    19:00 +41°C° 0 mm 4 mps 734 mmHg 22%
    20:00 +40°C° 0 mm 5 mps 735 mmHg 24%
    21:00 +39°C° 0 mm 5 mps 735 mmHg 26%
    22:00 +38°C° 0 mm 4 mps 735 mmHg 29%
    23:00 +37°C° 0 mm 4 mps 735 mmHg 32%

    25 May, Saturday

    Time Temperature Precipitation Wind Pressure Humidity
    00:00 +36°C° 0 mm 4 mps 735 mmHg 34%
    01:00 +36°C° 0 mm 4 mps 734 mmHg 36%
    02:00 +35°C° 0 mm 3 mps 734 mmHg 38%
    03:00 +35°C° 0 mm 3 mps 734 mmHg 41%
    04:00 +34°C° 0 mm 3 mps 734 mmHg 43%
    05:00 +34°C° 0 mm 3 mps 735 mmHg 46%
    06:00 +34°C° 0 mm 3 mps 736 mmHg 48%
    07:00 +35°C° 0 mm 4 mps 736 mmHg 43%
    08:00 +37°C° 0 mm 5 mps 736 mmHg 38%
    09:00 +39°C° 0 mm 6 mps 737 mmHg 32%
    10:00 +40°C° 0 mm 5 mps 736 mmHg 29%
    11:00 +41°C° 0 mm 5 mps 736 mmHg 27%
    12:00 +42°C° 0 mm 5 mps 736 mmHg 24%
    13:00 +43°C° 0 mm 4 mps 735 mmHg 22%
    14:00 +43°C° 0 mm 4 mps 734 mmHg 19%
    15:00 +44°C° 0 mm 3 mps 734 mmHg 17%
    16:00 +44°C° 0 mm 3 mps 734 mmHg 17%
    17:00 +43°C° 0 mm 4 mps 734 mmHg 17%
    18:00 +43°C° 0 mm 4 mps 734 mmHg 17%
    19:00 +42°C° 0 mm 4 mps 734 mmHg 19%
    20:00 +42°C° 0 mm 4 mps 734 mmHg 21%
    21:00 +40°C° 0 mm 3 mps 734 mmHg 22%
    22:00 +39°C° 0 mm 3 mps 734 mmHg 24%
    23:00 +39°C° 0 mm 3 mps 734 mmHg 25%
    Show more